Location: Newark
(48.8833°N, 0.9236°W)
Time: 08:47:06
(UTC+00:00)

Tiros 1 despin weight - Pass Details

Date: 20 November 2019
Orbit: 594 x 642 km, 48.2° (Epoch: 08 December)

Event Time Altitude Azimuth Distance (km) Brightness Sun altitude
Rises 17:52:27 0° 283° (WNW) 2,847 ? -15.2°
Reaches altitude 10° 17:54:50 10° 275° (W) 1,948 ? -15.6°
Maximum altitude 17:58:59 39° 207° (SSW) 917 ? -16.3°
Enters shadow 18:03:03 11° 139° (SE) 1,918 ? -17.0°
Drops below altitude 10° 18:03:12 10° 139° (SE) 1,968 - -17.0°
Sets 18:05:37 0° 131° (SE) 2,880 - -17.4°
